Location: Mohawk View
(42.7837°N, 73.7885°W)
Time: 00:49:56
(UTC+00:00)

Cosmos 968 Rocket - Pass Details

Date: 17 June 2021
Orbit: 741 x 771 km, 74.0° (Epoch: 02 August)

Event Time Altitude Azimuth Distance (km) Brightness Sun altitude
Rises 03:24:36 0° 341° (NNW) 3,187 8.3 -20.6°
Reaches altitude 10° 03:26:58 10° 344° (NNW) 2,261 7.1 -20.7°
Maximum altitude 03:32:05 73° 69° (ENE) 781 3.4 -21.1°
Enters shadow 03:33:31 47° 139° (SE) 984 3.6 -21.1°
